Location: *
(58.7167°N, 26.1833°E)
Time: 10:16:30
(UTC+00:00)

NOSS 3-4 (C) - Pass Details

Date: 25 August 2019
Orbit: 912 x 1301 km, 63.4° (Epoch: 11 September)

Event Time Altitude Azimuth Distance (km) Brightness Sun altitude
Rises 19:14:55 0° 273° (W) 3,627 7.3 -11.5°
Reaches altitude 10° 19:17:26 10° 278° (W) 2,719 6.7 -11.7°
Maximum altitude 19:23:44 59° 358° (N) 1,186 4.2 -12.3°
Drops below altitude 10° 19:30:39 10° 77° (ENE) 2,977 5.8 -12.9°
Sets 19:33:32 0° 81° (E) 3,996 6.4 -13.1°
